Regional Weather Roundup
Issued by NWS

Home | Current Version | Previous Version | Text Only | Print | Product List | Glossary On
Versions: 1 2 3 4 5 6 7 8 9 10 11 12 13 14 15 16 17 18 19 20 21 22 23 24 25 26 27 28 29 30 31 32 33 34 35 36 37 38 39 40 41 42 43 44 45 46 47 48 49 50
000
ASUS45 KREV 011210
RWRNV
NEVADA REGIONAL WEATHER ROUNDUP
NATIONAL WEATHER SERVICE RENO NV
500 AM PDT SUN MAY 01 2016

NOTE: "FAIR" INDICATES FEW OR NO CLOUDS BELOW 12,000 FEET WITH NO
SIGNIFICANT WEATHER AND/OR OBSTRUCTIONS TO VISIBILITY.

NVZ001-003-004-011300-
WESTERN NEVADA

CITY           SKY/WX    TMP DP  RH WIND       PRES   REMARKS
RENO           PTCLDY    38  32  79 CALM      30.03F
6HR MIN TEMP:  37; 6HR MAX TEMP:  49;

CARSON CITY    FAIR      37  32  81 N8        30.05R
MINDEN         FAIR      32  32 100 E7        30.05R
PYRAMID LAKE     N/A     48 N/A N/A NW2         N/A
FALLON         CLEAR     38  28  67 NW3       30.01F
6HR MIN TEMP:  36; 6HR MAX TEMP:  49;

LOVELOCK       CLEAR     46  33  60 NE17      30.02F
6HR MIN TEMP:  42; 6HR MAX TEMP:  52;

HAWTHORNE      CLEAR     45  37  76 N6        30.00F
$$

NVZ002-CAZ072-073-011300-
NORTHERN AND CENTRAL SIERRA

CITY           SKY/WX    TMP DP  RH WIND       PRES   REMARKS
S. LAKE TAHOE  MOCLDY    34  29  82 CALM      30.03S
6HR MIN TEMP:  34; 6HR MAX TEMP:  44;

TRUCKEE        CLEAR     28  27  93 CALM      30.04S
SQUAW VLY 8000   N/A     32  28  86 SE1         N/A
SUSANVILLE     CLEAR     45  32  61 E5        30.05R
BLUE CANYON    CLEAR     47  28  47 E10G23    29.96S
MAMMOTH LAKES  FAIR      30  27  88 N3        30.05S
6HR MIN TEMP:  30; 6HR MAX TEMP:  41;

BRIDGEPORT     FAIR      29  24  82 CALM      30.03S
$$

NVZ030-031-036-011300-
NORTHERN NEVADA

CITY           SKY/WX    TMP DP  RH WIND       PRES   REMARKS
ELKO           MOCLDY    42  35  76 E5        30.04F
6HR MIN TEMP:  41; 6HR MAX TEMP:  46;

WINNEMUCCA     MOCLDY    39  33  79 N7        30.07S
6HR MIN TEMP:  35; 6HR MAX TEMP:  47;

WENDOVER       PTCLDY    45  30  57 N24G31    30.06R
$$

NVZ035-037-011300-
CENTRAL NEVADA

CITY           SKY/WX    TMP DP  RH WIND       PRES   REMARKS
ELY            CLOUDY    38  33  82 N7        30.02R
6HR MIN TEMP:  37; 6HR MAX TEMP:  39; 6HR PCP: TRACE;

EUREKA           N/A     39  34  82 N3        30.02F
6HR MIN TEMP:  35; 6HR MAX TEMP:  42;

$$

NVZ013-014-011300-
SOUTH CENTRAL NEVADA

CITY           SKY/WX    TMP DP  RH WIND       PRES   REMARKS
TONOPAH        CLEAR     39  31  72 N13       29.99S
6HR MIN TEMP:  39; 6HR MAX TEMP:  50;

$$

NVZ017-020-022-011300-
SOUTHERN NEVADA

CITY           SKY/WX    TMP DP  RH WIND       PRES   REMARKS
LAS VEGAS      MOCLDY    55  48  77 SW6       29.81S
6HR MIN TEMP:  54; 6HR MAX TEMP:  61;

N. LAS VEGAS   CLOUDY    59  42  53 N6        29.84R
6HR MIN TEMP:  58; 6HR MAX TEMP:  61;

NELLIS AFB     CLOUDY    54  50  85 E2        29.84R
6HR MIN TEMP:  53; 6HR MAX TEMP:  58;

HENDERSON      PTCLDY    51  48  89 S5        29.87R
6HR MIN TEMP:  50; 6HR MAX TEMP:  55;

MERCURY        PTCLDY    52  37  56 E12       29.89R
6HR MIN TEMP:  50; 6HR MAX TEMP:  55;

$$



USA.gov is the U.S. government's official web portal to all federal, state and local government web resources and services.